Theta_e
310 310 310 311 311 311 311 311 311 312 312 310 306 303 301 302 305 314 319 319 317 316 313 310 314 316 316 318 320 321 325 327 326 327 328 328 328 328 327 325 327 329 329 329 329
310 310 310 310 310 310 310 311 311 310 311 310 306 302 301 304 313 317 318 315 311 309 308 310 312 316 317 318 319 321 324 324 324 325 326 327 327 328 328 328 327 329 329 328 328
310 309 310 309 309 309 309 310 309 310 310 309 304 300 301 306 320 321 311 309 308 306 316 316 314 314 316 319 319 320 322 322 322 323 323 324 326 327 329 330 329 328 329 329 328
307 306 307 307 308 309 310 310 310 311 310 305 300 300 303 313 326 316 311 311 310 312 318 315 314 314 315 317 319 320 320 321 322 322 322 323 324 324 326 328 329 328 328 328 328
307 307 307 307 308 309 309 309 309 309 308 303 300 300 312 321 320 313 311 310 313 317 318 315 314 314 314 316 318 319 320 321 322 322 322 322 322 323 323 326 328 329 327 327 327
306 307 307 308 309 310 310 310 308 308 305 302 300 303 315 319 319 315 315 316 320 315 317 317 317 317 316 316 316 317 318 319 320 320 320 321 321 321 323 325 326 328 329 326 327
306 306 307 308 309 309 309 309 309 306 302 300 300 312 315 317 313 318 316 316 316 315 316 316 316 316 316 316 316 317 317 317 317 318 318 319 319 319 321 323 324 325 327 326 326
306 307 307 308 307 307 307 310 311 311 301 300 302 314 318 315 314 314 318 316 316 315 315 315 315 315 316 316 316 316 317 317 317 317 318 318 318 319 320 321 321 321 322 324 325
307 307 307 308 307 307 311 310 306 307 301 302 311 317 319 312 312 313 314 315 315 315 314 315 314 314 315 316 315 316 315 317 317 317 317 318 318 318 319 320 321 322 322 322 323
305 307 307 308 307 309 311 313 314 305 305 312 315 320 320 317 315 311 314 315 315 314 314 314 315 315 315 315 315 316 316 316 317 318 318 318 318 318 319 319 321 321 321 322 322
305 307 308 307 308 309 312 317 320 323 321 321 322 320 319 317 316 316 314 314 314 314 315 316 316 317 317 317 317 317 317 316 317 318 319 318 318 318 319 319 319 320 322 323 323
304 307 307 307 309 309 309 319 317 316 318 318 319 318 316 316 316 316 315 315 315 315 315 316 316 317 316 315 315 316 317 317 317 317 318 318 317 318 318 319 320 321 322 322 322
303 306 306 307 310 310 316 317 316 316 319 319 319 316 316 315 316 316 315 315 315 315 316 316 317 317 317 315 315 315 315 316 316 316 317 317 317 317 318 318 319 320 322 322 322
299 307 307 309 312 317 318 317 315 317 321 323 317 316 315 315 316 316 316 316 316 316 315 316 316 316 317 316 315 315 315 315 316 316 316 317 319 320 320 321 320 320 320 320 320
298 305 308 309 313 317 317 315 314 318 333 320 318 316 316 315 317 316 316 316 315 315 316 316 316 316 316 315 315 315 315 315 316 317 318 317 317 317 319 318 318 319 318 320 319
299 299 308 313 315 318 316 316 316 326 332 320 317 315 315 316 316 316 316 316 315 315 316 316 316 316 316 316 315 315 315 315 315 316 318 317 318 319 318 319 319 320 318 318 318
301 301 302 312 317 316 317 317 324 328 322 319 317 316 316 316 316 317 317 317 317 317 318 318 318 318 318 316 316 315 315 315 317 318 320 318 320 321 319 319 318 319 318 319 318
304 306 304 312 316 316 317 320 324 322 321 319 317 316 316 316 316 317 317 317 318 317 319 321 324 320 320 320 319 319 318 317 318 319 317 319 326 321 321 317 317 318 319 318 316
307 317 314 318 318 315 319 322 322 321 320 318 316 315 316 317 317 317 317 317 317 317 319 319 319 318 319 319 319 320 320 317 321 320 319 319 321 320 320 319 316 316 315 315 317
305 318 319 319 317 316 318 321 321 319 318 316 316 316 316 317 317 317 317 317 316 316 317 318 319 315 315 318 318 320 319 323 323 326 323 319 317 319 319 321 319 316 315 317 320
310 320 320 317 315 317 320 321 320 317 314 312 314 315 315 315 315 317 317 316 316 316 317 318 320 318 316 315 319 318 321 318 319 323 322 321 319 319 319 319 319 316 316 317 319
311 320 318 313 315 320 321 317 313 314 313 312 312 312 313 316 317 317 316 315 315 315 316 317 320 320 315 315 315 316 316 320 324 324 322 323 322 319 318 317 320 316 316 317 317
311 317 317 313 318 318 316 315 315 314 312 311 313 314 314 314 315 314 314 314 313 314 315 315 316 318 316 317 318 318 317 316 318 320 320 323 321 317 319 319 318 318 318 317 319
312 316 317 316 316 315 315 315 314 314 312 310 312 313 313 313 314 314 313 312 313 313 314 313 313 313 316 315 315 319 316 316 317 324 322 318 317 316 319 318 317 318 318 318 319
314 315 315 315 315 315 315 315 314 314 312 312 312 312 311 312 311 312 312 312 313 317 313 313 314 313 312 312 313 312 312 314 316 316 316 315 315 316 317 318 318 318 318 316 317
312 310 311 312 315 316 314 315 314 312 311 309 309 309 310 310 311 312 311 311 311 311 312 314 316 314 315 314 313 314 314 315 313 313 312 313 314 315 316 315 315 317 318 317 319
308 307 309 311 314 314 316 314 311 310 308 308 308 308 309 309 310 310 310 310 311 311 312 312 313 316 318 315 313 315 317 315 316 316 314 315 316 317 318 315 317 319 319 320 320
Wind_Speed
19 19 19 18 17 17 17 17 16 16 15 15 14 14 14 17 20 13 12 6 2 16 13 13 14 16 19 18 21 20 15 17 25 25 22 20 18 15 12 10 11 8 15 6 7
21 21 20 19 18 18 17 17 16 16 16 16 14 13 14 16 18 19 7 7 10 11 8 12 13 15 14 19 18 19 16 26 23 23 22 23 22 17 17 12 11 14 20 15 4
22 21 20 19 19 18 18 17 16 16 16 15 14 12 13 13 11 6 7 1 4 6 8 13 14 15 18 17 20 23 24 22 24 22 23 26 26 22 17 18 16 16 16 17 5
22 21 20 20 19 19 18 17 17 16 16 13 11 11 12 8 3 11 9 4 4 6 11 10 11 14 18 19 20 25 26 26 24 24 25 24 23 25 25 16 19 20 16 15 14
24 22 21 20 19 18 18 18 16 16 15 10 8 9 8 9 10 13 9 6 6 9 15 9 10 13 16 18 21 24 25 24 25 25 24 23 26 25 25 23 12 16 15 13 10
24 23 20 20 20 19 18 17 15 15 12 8 6 6 7 12 14 13 8 7 11 9 12 9 9 7 13 17 19 20 21 25 23 24 22 23 22 24 25 22 19 17 16 11 12
24 24 23 21 20 18 17 16 15 11 7 5 5 5 11 16 3 11 9 10 9 7 9 10 8 9 8 12 18 18 21 19 22 20 21 23 28 25 25 24 21 22 17 16 16
24 24 23 21 18 15 13 10 10 8 4 5 5 6 8 9 15 11 12 11 10 8 10 12 9 13 14 15 18 17 17 18 22 23 23 22 25 24 23 21 23 23 20 19 15
24 22 21 19 16 11 5 5 7 1 4 6 5 10 11 5 9 14 13 14 13 10 11 10 10 13 14 15 15 15 17 21 24 23 21 24 27 23 21 20 20 22 17 23 11
25 22 19 13 9 7 5 6 4 3 4 7 15 10 11 12 10 15 15 14 11 8 12 11 11 12 13 13 15 18 19 20 22 19 20 25 23 17 16 19 19 15 13 12 10
25 22 15 8 6 7 7 6 5 6 12 14 7 12 9 4 3 7 11 11 11 11 13 14 13 14 17 17 20 20 21 24 21 20 17 14 17 18 19 22 19 12 12 12 12
25 20 14 6 6 8 8 7 8 9 11 16 21 16 15 4 9 12 14 13 13 14 15 15 16 16 17 18 20 21 19 20 20 21 19 19 18 14 18 21 19 17 18 16 14
24 18 12 7 7 11 13 7 11 13 8 16 15 12 11 13 13 12 15 14 15 17 17 17 19 17 18 14 18 18 18 20 22 21 21 21 20 17 20 21 21 19 14 14 14
24 17 10 7 8 12 9 7 13 9 5 10 9 9 7 10 14 17 13 15 18 19 19 17 18 18 18 17 13 20 19 21 20 18 15 17 15 19 22 25 24 21 16 14 17
27 16 11 8 14 12 9 11 11 6 5 8 10 7 6 11 3 11 12 14 16 18 19 20 19 18 19 16 16 21 19 15 20 17 16 20 14 18 20 20 13 13 12 12 7
29 19 15 11 12 12 10 10 6 5 6 6 6 6 10 13 15 13 10 13 12 18 20 23 23 23 25 21 16 17 14 14 17 14 15 22 17 18 18 21 19 18 15 12 11
32 22 16 12 12 11 11 8 6 5 1 1 0 4 9 13 15 13 13 17 17 20 20 23 20 21 23 22 20 18 15 13 14 12 16 23 11 19 20 21 13 17 14 13 9
33 15 8 14 14 10 11 8 8 11 11 13 8 13 17 18 18 18 15 17 18 19 15 15 17 17 12 16 18 17 17 13 18 13 15 10 6 11 24 10 2 12 17 14 12
28 5 6 12 8 7 8 9 14 11 12 10 15 18 16 14 12 9 15 16 19 15 16 16 20 7 8 14 6 11 15 19 15 17 14 16 12 15 21 18 12 10 4 5 4
20 13 12 10 4 7 8 15 20 18 6 10 14 12 16 17 19 19 19 15 23 8 11 17 20 14 14 4 4 8 9 8 5 4 12 13 16 11 3 12 19 12 9 9 10
6 5 7 3 3 6 9 15 16 14 10 6 13 17 18 19 18 19 19 19 13 9 12 10 13 15 11 10 21 9 14 20 11 9 7 10 11 5 4 5 18 11 10 10 11
8 7 9 5 6 7 10 13 7 14 12 12 14 16 17 17 17 19 19 19 6 9 8 4 6 12 18 18 21 19 17 3 4 8 8 8 11 13 3 4 5 6 4 4 6
6 9 7 2 6 9 16 16 20 16 11 8 12 15 16 17 17 15 18 17 15 7 7 7 5 11 13 13 12 6 18 10 13 10 12 11 14 9 4 17 11 10 15 11 14
5 6 2 5 11 8 12 16 15 16 13 9 11 12 15 16 14 16 18 17 5 9 9 1 9 14 14 19 16 6 11 13 9 8 9 15 23 16 9 4 12 17 14 17 19
5 9 5 8 12 19 15 16 17 15 10 8 9 15 16 15 17 17 15 14 13 8 4 6 12 15 18 20 22 23 23 18 21 21 17 18 20 20 17 12 17 16 14 11 15
8 6 8 13 15 15 11 16 16 13 12 14 16 18 15 15 15 17 15 14 15 16 14 9 15 15 20 22 22 25 23 21 22 22 23 25 25 20 19 20 16 19 22 17 23
19 16 7 9 14 12 12 18 16 15 12 9 16 12 14 15 16 14 14 14 15 14 13 13 9 10 15 16 18 14 20 17 18 18 14 17 23 21 22 16 11 11 13 10 9
Wind_Direction
338 336 334 332 328 327 326 325 322 321 316 310 305 302 305 310 313 290 259 245 274 247 281 268 263 233 235 241 239 237 248 252 250 252 262 270 260 176 185 211 272 227 268 279 53
337 335 333 330 327 326 323 321 318 316 313 308 302 299 306 317 307 276 238 246 277 261 245 230 243 234 232 231 233 231 240 241 252 265 266 263 260 252 172 201 237 229 250 286 251
333 332 329 327 326 323 319 316 312 311 308 304 297 297 306 328 283 171 153 207 224 213 239 273 261 251 241 237 230 233 240 246 249 253 261 270 275 270 186 202 204 237 248 246 326
329 327 324 322 321 319 316 314 311 308 302 299 296 300 308 301 330 141 134 147 185 221 256 253 244 248 247 243 242 245 241 249 253 264 273 277 277 270 273 247 179 200 224 261 303
330 326 323 320 317 316 314 310 306 301 296 293 290 306 322 239 257 143 145 158 199 229 240 231 242 245 248 248 256 245 252 256 253 251 264 275 274 280 279 270 244 177 199 223 260
329 327 324 320 317 314 310 306 302 298 296 282 269 297 259 262 124 151 166 179 241 228 253 275 266 306 293 267 258 265 256 259 256 262 267 261 260 272 266 272 267 262 216 195 243
334 328 323 319 316 313 310 306 300 293 285 260 256 297 268 246 274 170 205 221 238 255 279 238 281 290 275 269 252 269 273 274 264 255 261 257 258 243 260 265 265 267 259 205 214
336 331 325 319 315 314 319 323 310 291 246 216 230 258 263 253 235 229 216 231 245 253 257 292 290 277 278 284 286 269 263 260 251 254 246 248 259 245 245 251 255 256 258 264 218
337 334 327 319 314 322 325 2 349 234 203 200 245 214 265 150 231 239 227 240 238 221 251 258 280 271 271 258 258 244 255 253 254 244 245 233 244 249 254 259 249 240 259 240 236
344 340 331 323 320 319 295 304 299 201 200 236 263 264 258 258 187 223 222 238 251 252 245 240 248 252 246 245 255 261 250 238 244 252 252 239 245 241 254 253 253 235 253 268 252
349 350 339 326 314 301 295 270 210 207 221 253 296 241 302 253 249 229 227 214 249 249 261 253 243 252 247 254 256 265 269 283 291 295 306 244 236 250 252 256 258 225 227 242 238
353 353 343 315 294 290 287 266 29 309 298 266 240 254 264 242 273 215 227 220 230 245 256 241 249 259 263 263 277 279 280 281 287 278 280 276 263 258 263 269 267 221 219 222 234
350 351 341 299 282 271 237 357 321 315 279 287 218 236 224 224 243 257 210 227 248 265 255 258 277 290 292 279 282 268 266 273 276 279 269 255 259 258 266 264 265 257 230 227 221
346 342 337 309 293 282 253 334 331 344 278 232 190 235 202 199 240 237 246 233 247 258 262 270 279 290 292 284 274 272 272 262 261 262 266 272 268 253 251 232 239 237 241 239 232
343 327 311 282 303 291 349 321 330 279 287 157 144 100 220 205 319 205 225 250 253 274 276 271 270 262 272 257 264 274 268 294 301 287 284 257 264 268 277 276 250 215 225 233 229
339 321 296 272 254 261 320 321 284 238 252 158 156 223 218 222 245 262 201 215 258 279 275 272 271 274 275 265 261 264 278 281 284 284 269 263 259 267 265 260 255 204 195 197 196
334 313 271 270 281 330 316 271 247 246 127 247 275 305 261 267 271 248 242 243 242 256 256 265 286 289 274 265 277 248 252 257 249 245 258 261 316 280 258 238 291 150 167 160 176
336 310 260 239 274 307 295 249 252 281 314 14 343 312 292 284 273 268 285 287 254 263 264 274 292 298 346 328 281 273 295 243 254 258 259 245 261 255 328 197 176 164 167 178 181
338 295 220 237 235 282 274 245 249 293 336 338 323 290 285 298 290 259 270 275 299 314 297 292 273 294 180 221 251 264 252 277 276 285 277 268 244 280 279 301 185 175 165 177 178
330 294 267 159 218 264 260 264 289 290 357 318 296 299 297 308 320 310 307 314 319 15 285 300 298 298 315 24 280 199 275 287 218 241 246 261 249 235 269 265 275 185 200 202 185
302 257 122 157 212 248 253 277 309 355 355 308 299 299 300 300 300 297 299 305 11 351 350 308 300 298 344 285 284 217 223 249 301 238 259 283 283 58 327 177 230 213 203 186 211
306 288 145 180 264 239 256 332 318 292 297 288 282 279 280 288 295 300 304 305 30 332 280 201 264 272 282 258 279 302 276 290 184 296 287 258 254 286 212 224 331 259 246 228 227
300 285 178 214 280 322 325 322 322 307 316 302 300 303 308 301 301 295 291 292 309 287 329 1 302 317 322 297 36 20 304 294 320 257 216 241 270 274 44 299 277 263 244 228 236
284 309 345 245 262 262 317 316 311 318 295 294 291 301 292 283 288 301 306 301 224 269 114 123 282 275 275 285 306 211 242 271 196 255 262 260 281 285 157 234 276 292 288 320 307
259 308 2 299 317 322 305 304 304 307 323 316 298 292 295 307 305 297 297 307 320 140 216 233 273 282 285 284 285 292 292 255 261 279 273 268 270 276 284 206 238 232 266 299 277
307 339 338 303 295 298 292 286 312 329 334 312 307 301 302 298 294 303 307 301 296 302 305 276 267 273 282 284 284 280 295 287 278 268 265 268 262 261 266 265 248 231 236 239 263
335 331 296 289 298 309 307 326 315 312 305 288 300 289 288 298 317 308 299 289 283 285 283 291 306 312 282 288 305 277 260 274 291 304 301 298 299 326 329 270 286 339 334 319 287